[Date Prev][Date Next][Thread Prev][Thread Next][Date Index][Thread Index]

[jamsat-news:1623] jas2info #252



========================   最新情報   ==============================

        Last updated :22Nov2001  14:30(JST)   #252

====================================================================
   
1)アマチュア通信衛星情報、FOシリーズの軌道要素、テレメトリ、QSOの
   状況等をまとめてみました.
   
 FO−29の2001年11月21日(水)の20:07(JST)のパスでは
JARLのホームページのとうりアナログ運用でした。 今日までの観測した
テレメトリーと最終の分析結果を報告しておきます。

AS25991C  21Nov2001
20:23-20:29(JST)
FREQ.435.787-.786MHz

HI HI AE C7 88 55 00 D4 00 00 09 00 82 80 6E 5F 90 8E B0 75 94 94 91 90 8F 
HI HI AE C7 88 55 00 D4 00 00 09 00 7E 7F 6E 5F 91 8E B0 75 94 94 92 90 8F 
HI HI AE C7 88 55 00 D4 00 00 09 00 7A 7F 6E 5F 91 8E B0 5C 94 94 92 90 8F 
HI HI AE C7 88 55 00 D4 00 00 09 00 76 80 6E 5F 91 8E B0 69 94 94 92 90 8F 
HI HI AE C7 88 55 00 D4 00 00 09 00 71 80 6C 5F 91 8F B0 88 94 94 92 90 8F 
HI HI AE C7 88 55 00 D4 00 00 09 00 6B 80 6D 5F 91 8F B0 64 94 94 92 90 8F 
HI HI AE C7 88 55 00 D4 00 00 09 00 64 7F 6A 5F 91 8F B0 62 95 94 93 90 8F 

AS25977C  20Nov2001
19:18-19:38(JST)
FREQ.  435.802-.786MHz

HI HI AE 07 88 55 00 D4 FE FE 09 65 6F 20 00 88 8A 89 95 5F 91 8D 8E 90 8E 
HI HI AE 07 88 55 00 D4 FE FE 09 65 6F 21 00 88 8A 89 94 6D 91 8D 8E 90 8E 
HI HI AE 07 88 55 00 D4 FE FE 09 65 6F 26 00 88 88 89 94 7E 91 8D 8E 91 8E 
HI HI AE 07 88 55 00 D4 FE FE 09 65 6E 2F 00 88 89 88 94 79 91 8D 8E 90 8E 
HI HI AE 07 88 55 00 D4 FE FE 09 65 6B 3B 00 88 89 88 94 7A 91 8D 8E 90 8E 
HI HI AE 07 88 55 00 D4 FE FE 09 65 65 49 00 89 89 88 94 73 91 8D 8E 90 8E 
HI HI AE 07 88 55 00 D4 FE FE 09 65 5E 5A 00 89 89 87 94 4F 91 8D 8E 91 8E 
HI HI AE 07 88 55 00 D4 FE FE 09 65 57 6B 00 89 89 87 93 77 92 8E 8E 91 8E 
HI HI AE 07 88 55 00 D4 FE FE 09 65 51 7B 00 88 88 87 93 73 92 8E 8F 91 8E 
HI HI AE 07 88 55 00 D4 FE FE 09 65 4C 89 00 88 88 87 93 67 92 8E 8F 91 8E 
HI HI AE 07 88 55 00 D4 FE FE 09 65 4A 93 00 89 88 87 92 60 92 8F 8F 91 8E 
HI HI AE 07 88 55 00 D4 FE FE 09 65 4A 9A 01 88 88 87 92 6F 92 8E 8F 91 8E 
HI HI AE 07 88 55 00 D4 FE FE 09 65 4D 9D 09 82 88 87 93 6F 92 8F 8F 91 8E 
HI HI AE 07 88 55 00 D4 FE FE 09 65 5E 9E 4D 5F 8B 89 96 7E 93 8F 8F 92 8E 
HI HI AE 07 88 55 00 D4 FE FE 09 65 5B 9B 78 4C 8E 8B 99 67 93 8F 90 92 8E 
HI HI AE 07 88 55 00 D4 FE FE 09 65 64 96 77 4C 90 8D 9B 78 93 8F 90 92 8E 
HI HI AE 07 88 55 00 D4 FE FE 09 65 6E 8F 70 4F 91 8E 9C 8A 93 90 90 92 8E 
HI HI AE 07 88 55 00 D4 FE FE 09 65 77 8A 73 4D 92 8F 9D 7C 93 90 90 92 8E 
HI HI AE C7 88 55 00 D4 FE FE 09 65 80 83 74 5E 90 8E B0 7C 94 90 90 92 8E 
HI HI AE C7 88 55 00 D4 FE FE 09 65 86 80 74 5F 90 8E B0 73 94 90 90 92 8E 
HI HI AE C7 88 55 00 D4 FE FE 09 65 8B 80 72 5F 90 8E B0 73 94 90 90 92 8E 
HI HI AE C7 88 55 00 D4 FE FE 09 65 8D 82 70 5F 90 8E B0 7E 94 90 90 93 8E 
HI HI AE C7 88 55 00 D4 FE FE 09 65 8D 86 67 5F 90 8E B0 71 94 90 90 93 8E 
HI HI AE C7 88 55 00 D4 FE FE 09 65 8A 8B 5D 5E 90 8E B0 60 94 90 90 93 8E 
HI HI AE C7 88 55 00 D4 C5 3F 09 75 86 91 55 5F 90 8E B0 7C 94 90 90 93 8E 
HI HI AE C7 88 55 00 D4 C5 3F 09 75 80 97 5A 5F 91 8F B0 7B 95 90 91 93 8E 
HI HI AE C7 88 55 00 D4 C5 3F 09 75 80 9C 56 5F 9A 8F B0 6F 95 90 91 93 8E 
HI HI AE C7 88 55 00 D4 C5 3F 09 75 73 9F 55 5F 91 8F B0 63 95 90 91 93 8E
 
AS25964C   19Nov2001
20:29-20:33(JST)
FREQ.  435.787-.786MHz

HI HI AE C7 88 55 00 D4 00 00 09 00 70 4B 76 5F 91 8F B0 78 92 95 94 90 8F 
HI HI AE C7 88 55 00 D4 00 00 09 00 6F 48 75 5F 91 8F B0 7C 92 95 94 90 8F 
HI HI AE C7 88 55 00 D4 00 00 09 00 6D 45 73 5F 91 8F B0 88 92 95 94 90 8F 
HI HI AE C7 88 55 00 D4 00 00 09 00 6C 42 71 5F 91 8F B0 60 92 95 95 90 8F 
HI HI AE C7 88 55 00 D4 00 00 09 00 6B 3F 6F 5F 91 8F B0 6E 92 95 95 90 8F 
HI HI AE C7 88 55 00 D4 00 00 09 00 6B 3F 60 5F 91
 
AS25963C  19Nov2001
18:33-18:46(JST)
FREQ. 435.8000-.787MHz

HI HI AE 07 88 55 00 D4 00 00 09 00 62 36 00 8A 88 87 93 84 94 90 8F 92 8F 
HI HI AE 07 88 55 00 D4 00 00 09 00 62 36 00 88 88 87 93 87 94 91 8F 92 8F 
HI HI AE 07 88 55 00 D4 00 00 09 00 61 36 00 88 88 87 93 7A 94 91 8F 92 8F 
HI HI AE O7 88 55 00 D4 00 00 09 00 61 37 01 87 88 87 92 7F 94 91 8F 92 8F 
HI HI AE 07 87 55 00 D4 00 00 09 00 61 38 0E 7F 88 87 93 79 94 91 90 93 8F 
HI HI AE 07 88 55 00 D4 00 00 09 00 60 3A 59 5A 8B 89 96 8E 95 91 90 93 8F 
HI HI AE 07 88 55 00 D4 00 00 09 00 60 49 86 66 8D 8B 98 96 95 92 90 93 8F 
HI HI AE 07 88 55 00 D4 00 00 09 00 5F 3D 68 52 8F 8C 99 83 95 92 9  93 8F 
HI HI AE 07 88 55 00 D4 00 00 09 00 60       57 90 8E 9B 7C 95 92 91 93 8F 
HI HI AE 07 88 55 00 D4 00 00 09 00 5D 3F 6E 59 91 7F 9C 89 95 92 91 93 8F 
HI HI AE 07 88 55 00 D4 00 00 09 00 5C 40 71 5E 92 8F B0 61 96 93 91 94 90 
HI HI AE C7 88 55 00 D4 00 00 09 00 5A 40 73 5F 90 8F B0 62 96 93 92 94 90 
HI HI AE C7 88 55 00 D4 00 00 09 00 59 40 76 5F 91 7E B0 71 96 93 92 94 90
HI HI AE C7 88 55 00 D4 00 00 09 00 58 41 77 5F 91 8E B0 6A 96 93 92 94 90 
HI HI AE C7 88 55 00 D4 00 00 09 00 57 41 77 5F 90 8F B0 67 96 93 92 94 90 
HI HI AE C7 88 55 00 D4 00 00 09 00 56 41 77 5F 91 8F B0 79 97 94 92 94 90 
HI HI AE C7 88 55 00 D4 00 00 09 00 55 41 76 5F 91 8F B0 74 97 94 92 94 90 
HI HI AE C7 86 55 00 D4  
 
------------------------ FO-29の軌道要素 ------------------------------        
 
  ■ 軌道要素1:「jamsat−keps:1051」より         
          SB KEPS @ AMSAT  $ORB01319.N
          2Line Orbital Elements 01319.AMSAT

HR AMSAT ORBITAL ELEMENTS FOR AMATEUR SATELLITES IN NASA FORMAT
FROM WA5QGD FORT WORTH,TX November 15, 2001
SEND SUBSCRIBE/UNSUBSCRIBE TO majordomo@amsat.org ONLY
BID: ORB01319.N

 DECODE 2-LINE ELSETS WITH THE FOLLOWING KEY:
 1 AAAAAU 00  0  0 BBBBB.BBBBBBBB  .CCCCCCCC  00000-0  00000-0 0  DDDZ
 2 AAAAA EEE.EEEE FFF.FFFF GGGGGGG HHH.HHHH III.IIII JJ.JJJJJJJJKKKKKZ
 KEY: A-CATALOGNUM B-EPOCHTIME C-DECAY D-ELSETNUM E-INCLINATION F-RAAN
 G-ECCENTRICITY H-ARGPERIGEE I-MNANOM J-MNMOTION K-ORBITNUM Z-CHECKSUM

FO-29
1 24278U 96046B   01318.63632065  .00000158  00000-0  19893-3 0 04646
2 24278 098.5219 163.2856 0350416 331.9338 026.3295 13.52795488258980

 ■ 軌道要素2:「jamsat−keps:1052」より
        SB KEPS @ AMSAT  $ORB01319.O
        Orbital Elements  01319.OSCAR

HR AMSAT ORBITAL ELEMENTS FOR OSCAR SATELLITES
FROM WA5QGD FORT WORTH,TX November 15, 2001
SEND SUBSCRIBE/UNSUBSCRIBE TO majordomo@amsat.org ONLY
BID: ORB01319.O
TO ALL RADIO AMATEURS BT

Satellite: FO-29
Catalog number: 24278
Epoch time:      01318.63632065
Element set:    0464
Inclination:      098.5219 deg
RA of node:       163.2856 deg
Eccentricity:    0.0350416
Arg of perigee:   331.9338 deg
Mean anomaly:     026.3295 deg
Mean motion:   13.52795488 rev/day
Decay rate:       1.58e-06 rev/day^2
Epoch rev:           25898
Checksum:              341

-------------------  FO-29(JAS-2)のテレメトリに関する情報  ---------------------- 
 
2)上記11月21日(水)のテレメトリの最終行を分析しておきます.

AS25991C  21Nov2001
20:23-20:29(JST)
FREQ.435.787-.786MHz

HI HI AE C7 88 55 00 D4 00 00 09 00 64 7F 6A 5F 91 8F B0 62 95 94 93 90 8F 

テレメトリ   内 容         換算算値 単 位
3C	磁気センサーZ軸=	49019.6	[nT]
3D	磁気センサX軸	=	62254.9	[nT]
4A	太陽電池発生電流=       1039.2	[mA]
4B	B充放電電流	=	 -138.0	[mA]
4C	B端子電圧	=	   15.6	[V]
4D	B中間端子電圧	=	    6.9	[V]
5A	バス電圧	=	   17.3	[V]
5B	JTA送信電力	=	  538.9	[mW]
5C 	構体温度1	=	   24.0	[℃]
5D	構体温度2	=	   24.4	[℃]
6A	構体温度3	=	   24.8	[℃]
6B	構体温度4	=	   26.0	[℃]
6C	Bセル温度	=	   26.3	[℃]

 ========================== FO-29(ふじ3号)のQSO情報等 ======================
   
 3)[jamsat-bb:

 ===============================================================================
   4)JARL のホームページに運用予定が記載されていましたのでご紹介します.
       ( http://www.jarl.or.jp/Japanese/3_Fuji/new/uy.htm )
       
      ふじ3号(JAS−2)の運用 

        *** 運用予定について ***

 10月1日(月) 〜 12月3日(月)アナログ系運用 

  *なお,運用予定は都合により,変更することがありますので,あらかじめご了承願います。

 照会先 : lab@jarl.or.jp

 最新の情報はテレホンサービス(03−3942−1000)をお聞きください。  
 以後の運用につきましては平成13年12月上旬にお知らせいたします。 
     
-----------------------    FO−20(JAS-1b)道要素   -------------------------
  5)
  ■ 軌道要素1 :出典はFO-29「ふじ3号」に同じ.
  
FO-20
1 20480U 90013C   01318.63794997 -.00000011  00000-0  53006-4 0 03933
2 20480 099.0400 358.8191 0540570 328.5635 028.4177 12.83301392551390
 
  ■ 軌道要素2 :出典はFO−29「ふじ3号」に同じ.
               
Satellite: FO-20
Catalog number: 20480
Epoch time:      01318.63794997
Element set:    0393
Inclination:      099.0400 deg
RA of node:       358.8191 deg
Eccentricity:    0.0540570
Arg of perigee:   328.5635 deg
Mean anomaly:     028.4177 deg
Mean motion:   12.83301392 rev/day
Decay rate:       -1.1e-07 rev/day^2
Epoch rev:           55139
Checksum:              306

 --------------------------------------------------------------------------------
 
         ■ ふじ2号/FO−20/JAS-1b ■      
            
          「ふじ2号」 現況                                                                                  
             
   JAS-1b(ふじ2号)のCWテレメトリ信号に,1997年10月12日12時(JST)の
 日本上空通過時,3桁の数字が繰り返されるはずが3個の長音の繰り返しとなっているという
 異常が発見されました。この不具合は次の通過時からは回復していましたが13日15時20分の
 通過時に再び観測されました。現在はA0の送信が続いています。衛星のアナログ系中継モード
 動作は異常が無く,正常時のテレメトリ内容からは衛星の動作に異常は認められません。従って,
 直ちに衛星のミッションに影響することは無いと予想されますので,当面はアナログ系中継
 モードを継続します。衛星は既に打ち上げてから7年8ヶ月を経ておりますので,今後は監視を
 強化する予定です。アマチュア各位のレポートをお待ちします。
 -------------------------------------------------------------------------------- 
  1997年10月14日 00時35分 確認のテレメトリ音 151 KB (A0) 
  1997年10月14日 11時10分 確認のテレメトリ音 216 KB (異常キーイング) 

  以上 JARLのホ−ムページの http://www.jarl.or.jp/Japanese/3_Fuji/new/fuji.htm

===================== FO-20 ふじ2号 のテレメトリ観測結果 ====================

  10月27日(土)11:33(JST)の観測結果ではテレメトリは、以前観測した単一周波数の
ドップラー効果で周波数がずれていくのみの状態でした。
                                         
   =============   JAS-2 (ふじ3号)と現在までの情報   ===========
  
  A.電話によるふじ3号の運用情報
      社団法人日本アマチュア連盟によるサービス
           TEL .   03− 3942 − 1000
  B.アマチュア無線FAXサービス
      JARLによるふじ3号の軌道情報(オービットカレンダー)
         FAX No.  03− 3233 −0055
  C.WWWブラウザで情報を簡単に見れる人のためにJAS−2
     ふじ3号の衛星としての運用されるまでの名前)の概要、打ち上げ
     までの状況、運用中における状況を説明したホームページを紹介し
     ておきます.
     社団法人日本アマチュア無線連盟(JARL)のホームページ

          http://www.jarl.or.jp/Japanese/3_Fuji/jasmenu.htm
 
     宇宙開発事業団(NASDA)ホームページ 
          http://www.nasda.go.jp/
         打上げ衛星 :地球観測プラットフォーム技術衛星(ADEOS) 
                       アマチュア衛星3号(JAS-2)
          http://spaceboy.nasda.go.jp/note/eisei/j/Eis15h_j.html#Eis15h_01_j
     http://spaceboy.nasda.go.jp/note/eisei/j/Eis15i_j.html        

  D.JAMSATによる軌道情報の活用
        JAMSATのホームページまたはjamsat−kepsの軌道要素より
      衛星の軌道情報を得る.
     JAMSATホームページ
               URL    http://www.jamsat.or.jp
       上記ホームページでは各地で行われるアマチュア通信衛星に関する
      ミューティングのお知らせや世界のアマチュア衛星に関する情報が
      満載されています.
 ========================================================================  
     JAMSATのメンバーのご協力によりJH6MME(高山 秀造)が
    執筆・編集を担当しております.ご指摘の意見、疑問やこのようにしたら
    というアイデアがありましたら小さなことでもかまいませんので気軽に下
    記アドレスまでご連絡ください.jamsat−newsからjas2
    infoへの転載をJH4PHW局坂井さんに担当して頂いております.  
                  E-mail : jh6mme@jamsat.or.jp : jh4phw@jamsat.or.jp
 ===============================   END  ===============================